Location: Hamburg
(53.5500°N, 10.0000°E)
Time: 22:38:06
(UTC+02:00)

Daily predictions for brighter satellites

Satellite Brightness Start Highest point End
(mag) Time Altitude Azimuth Time Altitude Azimuth Time Altitude Azimuth
SL-08 RB Rocket 3.8 22:33:48 10° SSE 22:38:17 86° WSW 22:42:51 10° NNW
Lacrosse 4 Rocket 1.7 22:34:04 10° NW 22:38:30 76° NE 22:42:58 10° SE
H-2A R/B 2.4 22:33:51 10° SSE 22:39:12 65° ENE 22:44:38 10° N
ATLAS 2AS CENTAUR R/B 3.6 22:34:35 10° S 22:41:24 37° ESE 22:48:37 10° NE
Cosmos 1048 Rocket 4.4 22:36:12 10° NNW 22:41:31 59° ENE 22:46:50 10° SE
Cosmos 1898 Rocket 3.5 22:36:44 10° SSW 22:41:55 79° ESE 22:47:11 10° NNE
Meteor 1-4 Rocket 3.7 22:40:31 10° NNW 22:44:07 43° W 22:47:38 10° SSW
Terra 2.1 22:39:33 10° SSE 22:44:14 62° ENE 22:48:58 10° N
Cosmos 858 Rocket 4.5 22:39:12 10° SSW 22:44:24 76° ESE 22:49:37 10° NNE
Cosmos 2237 Rocket 2.6 22:38:50 10° NW 22:44:29 62° WSW 22:50:05 10° SSE
ATLAS 3B R/B 2.8 22:37:17 10° NW 22:44:29 81° SW 22:51:13 10° SE
Cosmos 2058 3.9 22:41:46 10° SSW 22:45:46 49° WNW 22:49:47 10° N
Cosmos 1933 4.2 22:42:08 10° N 22:45:58 38° ENE 22:49:48 10° SE
Cosmos 2219 3.7 22:41:44 10° SW 22:47:29 70° NW 22:53:14 10° NNE
SPOT 1/Viking Rocket 4.3 22:46:57 10° S 22:51:58 52° W 22:57:03 10° NNW
Cosmos 1346 3.4 22:49:58 10° S 22:52:54 49° E 22:55:51 10° NNE
Cosmos 2082 4.0 22:51:36 10° S 22:57:06 50° ESE 23:02:37 10° NE
Cosmos 2221 Rocket 4.2 22:52:43 10° N 22:57:08 46° ENE 23:01:30 10° SE
Cosmos 2150 Rocket 4.3 22:52:03 10° SSW 22:57:32 82° WNW 23:03:03 10° NNE
Spot 4 4.1 22:53:14 10° SSE 22:58:03 66° ENE 23:02:54 10° N
USA 238 DEB 3.9 22:53:58 10° NW 23:01:05 79° NE 23:08:07 10° SE
USA 238 3.9 22:54:05 10° NW 23:01:10 78° NE 23:08:13 10° SE
Cosmos 2181 Rocket 4.3 22:55:24 10° N 23:01:44 60° ENE 23:08:05 10° SSE
NOSS 3-1 (C) 3.6 22:57:36 10° SW 23:03:42 90° NNW 23:10:40 10° NE
CZ-4C R/B 3.2 23:03:55 10° NW 23:10:28 61° NNE 23:17:54 10° ESE
Cosmos 1862 Rocket 4.0 23:07:11 10° NNW 23:11:29 59° W 23:15:44 10° S
GEOS 3 Rocket 4.5 23:06:55 10° ESE 23:11:53 47° NNE 23:16:50 10° NW
Cosmos 1869 3.7 23:08:18 10° NNW 23:12:20 66° W 23:16:21 10° S
Sich 1 4.2 23:08:09 10° SSW 23:12:23 45° WNW 23:16:38 10° N
CZ-4 R/B 4.0 23:08:54 10° NNE 23:13:53 83° WNW 23:18:44 10° SSW
CENTAUR R/B 4.3 23:08:24 10° WNW 23:15:04 40° N 23:22:25 10° ENE
Tiangong 1 3.1 23:15:24 10° SSW 23:16:38 12° S 23:17:08 11° S
CARTOSAT-1 3.8 23:13:51 10° S 23:18:09 67° WSW 23:22:28 10° NNW
CZ-4B R/B 3.9 23:16:43 10° E 23:18:12 12° ENE 23:19:40 10° NNE
Cosmos 389 Rocket 3.1 23:15:17 10° N 23:18:46 45° ENE 23:21:47 12° SE
Cosmos 1633 Rocket 4.3 23:15:49 10° SW 23:19:57 41° WNW 23:24:07 10° N
Cosmos 1626 2.2 23:19:01 10° SSW 23:22:47 82° WNW 23:26:35 10° N
Cosmos 2227 Rocket 2.2 23:23:24 10° SSW 23:29:04 81° ESE 23:34:47 10° NNE
IGS 5A 3.9 23:25:03 10° S 23:29:11 60° W 23:33:20 10° NNW
DMSP B5D2-2 4.1 23:25:43 10° NNE 23:30:58 71° ESE 23:36:10 10° S
ATLAS 5 CENTAUR R/B 4.2 23:27:23 10° WNW 23:32:09 30° N 23:37:19 10° ENE
ERBS 2.5 23:29:41 10° SW 23:33:05 50° SE 23:36:29 10° ENE
NOSS 3-2 (C) 4.4 23:27:18 10° NW 23:34:23 62° NNE 23:42:08 10° ESE
USA 234 3.7 23:28:21 10° ENE 23:34:51 67° N 23:41:20 10° W
Cosmos 1937 Rocket 4.2 23:31:16 10° SW 23:36:25 58° WNW 23:41:33 10° NNE
SL-16 R/B 2.7 23:34:29 10° NW 23:39:59 52° WSW 23:45:02 12° S
Spot 2 4.5 23:36:53 10° NNE 23:42:03 74° ESE 23:46:57 10° S
Cosmos 990 Rocket 4.3 23:37:28 10° SW 23:42:35 68° WNW 23:47:45 10° NNE
Cosmos 2333 Rocket 4.0 23:39:23 10° NW 23:43:47 23° WSW 23:48:10 10° SSW
Cosmos 1869 Rocket 3.8 23:42:18 13° S 23:46:14 60° E 23:50:38 10° NNE
Cosmos 1241 Rocket 4.5 23:40:55 10° SW 23:47:09 88° SE 23:53:31 10° NE
Cosmos 2219 Rocket 4.4 23:48:39 10° WNW 23:51:47 15° W 23:54:55 10° SW
Okean 1-7 3.0 23:50:19 10° NNW 23:54:37 80° W 23:58:05 15° S
COS B Rocket 3.3 23:51:04 10° N 23:54:55 86° E 23:58:25 15° S
